N7QNM-13 Weather Reports


Display with metric or nautical units.
time (UTC)temp
F
wind
direction
speed
MPH
gust
MPH
rain 1hr
in
rain 24hr
in
rain mn
in
humidity
%
barometer
mb
20260502161053 69 261 7.0 9.0 0.00 0.00 0.00 50 1013.4
20260502152114 66 0.0 0.0 0.00 0.00 0.00 61 1013.5
20260502151055 63 251 0.0 3.0 0.00 0.00 0.00 63 1013.4
20260502130116 53 322 0.0 1.0 0.00 0.00 0.00 80 1012.8
20260502123056 53 306 0.0 2.0 0.00 0.00 0.00 78 1012.6
20260502122057 53 35 0.0 2.0 0.00 0.00 0.00 78 1012.6
20260502121057 53 293 0.0 0.0 0.00 0.00 0.00 78 1012.6
20260502115056 53 53 0.0 3.0 0.00 0.00 0.00 77 1012.6
20260502114057 53 38 1.0 3.0 0.00 0.00 0.00 76 1012.6
20260502113057 54 46 1.0 4.0 0.00 0.00 0.00 75 1012.5
20260502112057 54 327 0.0 0.0 0.00 0.00 0.00 74 1012.5
20260502111057 55 271 0.0 2.0 0.00 0.00 0.00 73 1012.3
20260502110117 55 143 0.0 0.0 0.00 0.00 0.00 71 1012.4
20260502105118 55 244 1.0 4.0 0.00 0.00 0.00 72 1012.4
20260502104058 55 260 0.0 0.0 0.00 0.00 0.00 73 1012.4
20260502103059 54 38 1.0 3.0 0.00 0.00 0.00 73 1012.4
20260502102058 54 276 1.0 3.0 0.00 0.00 0.00 74 1012.4
20260502101058 54 306 0.0 2.0 0.00 0.00 0.00 73 1012.4
20260502091059 53 59 1.0 6.0 0.00 0.00 0.00 73 1012.7
20260502090119 54 265 4.0 6.0 0.00 0.00 0.00 71 1012.7
20260502071100 55 311 0.0 2.0 0.00 0.00 0.00 66 1012.5
20260502070100 56 0.0 0.0 0.00 0.00 0.00 65 1012.5
20260502065100 56 27 0.0 1.0 0.00 0.00 0.00 65 1012.5
20260502064120 57 248 0.0 2.0 0.00 0.00 0.00 64 1012.5
20260502063100 57 255 1.0 3.0 0.00 0.00 0.00 63 1012.5
20260502062101 57 263 0.0 3.0 0.00 0.00 0.00 64 1012.4
20260502061121 58 251 2.0 3.0 0.00 0.00 0.00 64 1012.4
20260502060101 58 297 0.0 2.0 0.00 0.00 0.00 63 1012.3
20260502055101 58 244 0.0 2.0 0.00 0.00 0.00 62 1012.4
20260502054101 59 265 0.0 2.0 0.00 0.00 0.00 61 1012.4
20260502053141 59 262 1.0 3.0 0.00 0.00 0.00 60 1012.4
20260502052101 59 265 2.0 4.0 0.00 0.00 0.00 60 1012.4
20260502051101 59 239 3.0 5.0 0.00 0.00 0.00 61 1012.4
20260502045101 59 0.0 0.0 0.00 0.00 0.00 59 1012.0
20260502044142 60 261 0.0 2.0 0.00 0.00 0.00 58 1012.0
20260502043101 62 255 0.0 2.0 0.00 0.00 0.00 55 1012.0
20260502042102 63 288 0.0 0.0 0.00 0.00 0.00 53 1011.9
20260502041102 64 242 0.0 2.0 0.00 0.00 0.00 51 1011.8
20260502035103 66 0.0 0.0 0.00 0.00 0.00 48 1011.7
20260502034102 67 11 0.0 1.0 0.00 0.00 0.00 48 1011.7
20260502033102 68 0.0 0.0 0.00 0.00 0.00 44 1011.5
20260502032102 69 204 0.0 1.0 0.00 0.00 0.00 44 1011.5
20260502031102 71 311 0.0 2.0 0.00 0.00 0.00 43 1011.4
20260502030603 72 267 0.0 1.0 0.00 0.00 0.00 42 1011.3
20260502025603 73 0.0 0.0 0.00 0.00 0.00 41 1011.3
20260502025103 74 0.0 0.0 0.00 0.00 0.00 40 1011.4
20260502024103 75 0.0 0.0 0.00 0.00 0.00 40 1011.4
20260502023103 76 69 0.0 4.0 0.00 0.00 0.00 40 1011.3
20260502022123 76 55 2.0 5.0 0.00 0.00 0.00 40 1011.3
20260502021103 76 53 5.0 7.0 0.00 0.00 0.00 40 1011.3
20260502020104 76 58 5.0 6.0 0.00 0.00 0.00 39 1011.3
20260502015104 77 58 5.0 11.0 0.00 0.00 0.00 38 1011.3
20260502014104 77 58 7.0 10.0 0.00 0.00 0.00 37 1011.4
20260502013104 77 55 8.0 13.0 0.00 0.00 0.00 37 1011.5
20260502012104 77 61 7.0 14.0 0.00 0.00 0.00 38 1011.5
20260502011104 77 62 8.0 12.0 0.00 0.00 0.00 37 1011.7
20260502010104 77 61 9.0 15.0 0.00 0.00 0.00 37 1011.7
20260502005104 77 56 8.0 15.0 0.00 0.00 0.00 38 1011.8
20260502004105 77 55 7.0 11.0 0.00 0.00 0.00 37 1011.9
20260502003104 77 56 7.0 11.0 0.00 0.00 0.00 38 1011.9
20260502002109 78 56 7.0 12.0 0.00 0.00 0.00 37 1011.9
20260502001105 78 60 6.0 9.0 0.00 0.00 0.00 36 1012.0
20260501234605 78 56 6.0 10.0 0.00 0.00 0.00 36 1012.2
20260501233605 78 50 5.0 10.0 0.00 0.00 0.00 35 1012.3
20260501225106 79 50 7.0 13.0 0.00 0.00 0.00 35 1012.9
20260501224146 78 50 6.0 13.0 0.00 0.00 0.00 36 1013.0
20260501223107 78 48 6.0 13.0 0.00 0.00 0.00 35 1013.1
20260501222106 78 49 5.0 12.0 0.00 0.00 0.00 35 1013.2
20260501221107 78 45 5.0 11.0 0.00 0.00 0.00 34 1013.3
20260501220106 77 50 8.0 15.0 0.00 0.00 0.00 35 1013.4
20260501215107 77 48 6.0 13.0 0.00 0.00 0.00 35 1013.6
20260501214107 78 48 6.0 12.0 0.00 0.00 0.00 34 1013.7
20260501213107 77 46 5.0 13.0 0.00 0.00 0.00 34 1013.8
20260501212107 77 46 5.0 15.0 0.00 0.00 0.00 33 1013.9
20260501211107 77 52 10.0 19.0 0.00 0.00 0.00 34 1013.9
20260501210107 77 49 9.0 14.0 0.00 0.00 0.00 33 1014.1
20260501205108 76 54 7.0 16.0 0.00 0.00 0.00 32 1014.2
20260501204107 76 49 8.0 16.0 0.00 0.00 0.00 34 1014.3
20260501203248 76 45 5.0 13.0 0.00 0.00 0.00 34 1014.5
20260501202107 75 48 4.0 11.0 0.00 0.00 0.00 35 1014.7
20260501201107 75 49 5.0 14.0 0.00 0.00 0.00 35 1014.8
20260501200108 74 49 7.0 15.0 0.00 0.00 0.00 35 1014.9
20260501195108 74 52 7.0 14.0 0.00 0.00 0.00 37 1015.0
20260501194108 73 58 5.0 14.0 0.00 0.00 0.00 40 1015.2
20260501193108 72 30 3.0 10.0 0.00 0.00 0.00 41 1015.3
20260501192108 72 39 3.0 11.0 0.00 0.00 0.00 39 1015.4
20260501191109 72 59 2.0 7.0 0.00 0.00 0.00 41 1015.6
20260501190109 72 29 1.0 4.0 0.00 0.00 0.00 41 1015.7
20260501185109 72 77 1.0 7.0 0.00 0.00 0.00 42 1015.8
20260501184109 71 70 1.0 5.0 0.00 0.00 0.00 42 1015.9
20260501183109 71 39 2.0 8.0 0.00 0.00 0.00 41 1016.0
20260501182109 71 36 1.0 8.0 0.00 0.00 0.00 40 1016.0
20260501181108 71 246 3.0 6.0 0.00 0.00 0.00 41 1016.0
20260501180129 71 197 0.0 3.0 0.00 0.00 0.00 42 1016.1
20260501175109 69 302 2.0 5.0 0.00 0.00 0.00 42 1016.1
20260501174109 69 290 2.0 5.0 0.00 0.00 0.00 43 1016.2
20260501173109 68 281 3.0 7.0 0.00 0.00 0.00 45 1016.3
20260501172109 68 298 4.0 10.0 0.00 0.00 0.00 46 1016.4
20260501171109 67 301 1.0 4.0 0.00 0.00 0.00 47 1016.4
20260501170109 67 280 2.0 6.0 0.00 0.00 0.00 47 1016.4
20260501165110 67 247 3.0 6.0 0.00 0.00 0.00 46 1016.4
20260501164110 66 255 1.0 5.0 0.00 0.00 0.00 48 1016.4
20260501163110 66 326 1.0 3.0 0.00 0.00 0.00 47 1016.5
20260501162110 65 246 1.0 3.0 0.00 0.00 0.00 48 1016.6